Home   Weather   Cocoa Beach   Past weeks

Flag for USA Past Weather in Cocoa Beach, Florida, USA — Yesterday and Last 2 Weeks

Now
82 °F

Broken clouds.


Feels Like: 88 °F
Forecast: 73 / 87 °F
Wind: 13 mph from Southeast

Location: Cocoa / Patrick Air Force Base

Current Time: Apr 27, 2017 at 11:15:41 am

Latest Report: Apr 27, 2017 at 10:38 am


Visibility: 10 mi

Pressure: 29.98 "Hg

Humidity: 74%

Dew Point: 73 °F

Location of Cocoa BeachLocation

Past Weather in Cocoa Beach — Graph

°F

Cocoa Beach Temperature Yesterday

Maximum temperature yesterday: 82 °F (at 1:58 pm)
Minimum temperature yesterday: 65 °F (at 6:58 am)
Average temperature yesterday: 74 °F

High & Low Weather Summary for the Past Weeks

 TemperatureHumidityPressure
High87 °F (Apr 24, 3:58 pm)96% (Apr 24, 4:58 am)30.29 "Hg (Apr 24, 4:58 am)
Low64 °F (Apr 25, 6:58 am)37% (Apr 25, 2:58 pm)29.66 "Hg (Apr 24, 3:58 pm)
Average75 °F65%30.05 "Hg
* Reported Apr 12 9:58 am — Apr 27 9:58 am, Cocoa Beach, Weather by CustomWeather, © 2017

Note: Actual official high and low records may vary slightly from our data, if they occured in-between our weather recording intervals... More about our weather records

Advertising

Cocoa Beach Weather History for the Previous 24 Hours

Scroll right to see more
 ConditionsComfort  
Time TempWeatherWind HumidityBarometerVisibility
9:58 am
Thu, Apr 27
82 °FSunny.8 mph71%29.98 "Hg10 mi
8:58 am78 °FSunny.12 mph83%29.96 "Hg10 mi
7:58 am75 °FSunny.8 mph92%29.95 "Hg10 mi
5:58 am72 °FClear.7 mph92%29.92 "Hg10 mi
4:58 am72 °FClear.6 mph90%29.91 "Hg10 mi
3:58 am72 °FClear.7 mph89%29.91 "Hg10 mi
2:58 am72 °FClear.6 mph85%29.91 "Hg10 mi
1:58 am73 °FClear.6 mph81%29.92 "Hg10 mi
12:58 am74 °FClear.8 mph78%29.93 "Hg10 mi
11:58 pm
Wed, Apr 26
75 °FClear.9 mph74%29.93 "Hg10 mi
10:58 pm77 °FPassing clouds.12 mph75%29.93 "Hg10 mi
9:58 pm76 °FPassing clouds.14 mph77%29.91 "Hg10 mi
8:58 pm76 °FPassing clouds.16 mph73%29.89 "Hg10 mi
7:58 pm76 °FPassing clouds.16 mph69%29.87 "Hg10 mi
6:58 pm77 °FSunny.18 mph61%29.86 "Hg10 mi
5:58 pm78 °FSunny.17 mph57%29.85 "Hg10 mi
4:58 pm78 °FPassing clouds.17 mph54%29.85 "Hg10 mi
3:58 pm79 °FPassing clouds.17 mph51%29.86 "Hg10 mi
2:58 pm82 °FSunny.16 mph50%29.89 "Hg10 mi
1:58 pm82 °FSunny.12 mph37%29.90 "Hg10 mi
12:58 pm81 °FSunny.13 mph38%29.92 "Hg10 mi
11:58 am78 °FSunny.12 mph41%29.93 "Hg10 mi
Weather by CustomWeather, © 2017

See weather overviewHow to use our weather pages